Weather in Yevgashchino

Russia / Omsk Oblast     56°25′18″N   74°40′49″E
temp.,
°C
wind,
m/s
gust,
m/s
humid.,
%
clouds,
%
prec.,
mm/h
press.,
hPa
HPBL,
m
24 october, sun
sun2400:00+10sw7157888 0.3 1007887
03:00+9wsw7157826 0.2 1008788
06:00+7wsw7148176 0.2 1011717
09:00+6wsw512820 0.0 1013611
12:00+9wsw611735 0.0 10131063
15:00+10wsw61267100 0.0 10151310
18:00+9wsw41174100 0.0 1016496
21:00+8ssw3777100 0.0 1015222
25 october, mon
mon2500:00+8s3885100 0.6 1012377
03:00+10ssw71479100 0.9 1008835
06:00+9sw71358100 1.1 1008901
09:00+9sw71454100 0.0 1008893
12:00+9w7137018 0.0 10101233
15:00+9w6105626 0.0 10121360
18:00+6wsw376393 0.0 1014190
21:00+5ssw2369100 0.0 101467
26 october, tue
tue2600:00+5sse3672100 0.0 1012154
03:00+5sse41189100 1.3 1008489
06:00+6ssw61285100 3.4 10041028
09:00+6ssw61288100 1.6 10001229
12:00+3wnw61296100 3.5 1001646
15:00+3w71288100 0.2 10031187
18:00+1wnw8137296 0.4 10081455
21:00−1wnw7137173 0.0 10131114
27 october, wed
wed2700:00−1wnw6117398 0.0 1017969
03:00−2w5107547 0.0 1019765
06:00−2wsw410785 0.0 1021533
09:00−2sw4107797 0.0 1022633
12:00+1wsw695999 0.0 10221168
15:00+1wsw596997 0.0 10211078
18:000wsw388580 0.1 1022415
21:00−1sw3792100 0.0 1023334
28 october, thu
thu2800:000sw2690100 0.1 1023243
03:000s3679100 0.0 1022210
06:00−1s3873100 0.0 1021270
09:000s4969100 0.0 1020381
12:00+2ssw5952100 0.0 1019578
15:00+3ssw51054100 0.0 1017745
18:00+2ssw51260100 0.0 1016525
21:00+2ssw51361100 0.0 1013508